TimeEDT,TemperatureF,Dew PointF,Humidity,Sea Level PressureIn,VisibilityMPH,Wind Direction,Wind SpeedMPH,Gust SpeedMPH,PrecipitationIn,Events,Conditions,WindDirDegrees,DateUTC
12:54 AM,37.0,27.0,67,29.58,10.0,NNW,20.7,34.5,N/A,,Overcast,330,2012-10-30 04:54:00
1:54 AM,37.0,27.0,67,29.55,10.0,NNW,10.4,19.6,N/A,,Overcast,330,2012-10-30 05:54:00
3:54 AM,37.0,27.0,67,29.50,10.0,NW,11.5,20.7,N/A,,Overcast,310,2012-10-30 07:54:00
4:40 AM,37.4,28.4,70,29.49,10.0,NNW,11.5,19.6,N/A,,Overcast,340,2012-10-30 08:40:00
4:54 AM,37.0,28.0,70,29.49,10.0,NNW,9.2,17.3,N/A,,Overcast,340,2012-10-30 08:54:00
5:54 AM,37.0,28.9,73,29.48,10.0,NNW,12.7,18.4,N/A,,Overcast,330,2012-10-30 09:54:00
6:54 AM,36.0,30.9,82,29.48,10.0,North,10.4,19.6,N/A,,Overcast,360,2012-10-30 10:54:00
7:54 AM,36.0,30.9,82,29.50,10.0,North,11.5,-,N/A,,Overcast,350,2012-10-30 11:54:00
8:28 AM,35.6,30.2,81,29.50,10.0,North,10.4,19.6,N/A,,Mostly Cloudy,350,2012-10-30 12:28:00
8:54 AM,36.0,30.9,82,29.51,10.0,North,12.7,-,N/A,,Mostly Cloudy,350,2012-10-30 12:54:00
9:54 AM,39.0,28.0,65,29.51,10.0,NNW,12.7,20.7,N/A,,Partly Cloudy,330,2012-10-30 13:54:00
10:54 AM,39.9,27.0,60,29.51,10.0,WNW,18.4,35.7,N/A,,Partly Cloudy,300,2012-10-30 14:54:00
11:54 AM,41.0,28.0,60,29.52,10.0,NW,12.7,23.0,N/A,,Mostly Cloudy,310,2012-10-30 15:54:00
12:54 PM,39.9,28.0,63,29.53,10.0,NW,15.0,27.6,N/A,,Overcast,320,2012-10-30 16:54:00
1:54 PM,39.9,28.9,65,29.55,10.0,NW,12.7,-,N/A,,Overcast,320,2012-10-30 17:54:00
2:05 PM,39.2,28.4,65,29.54,10.0,NW,11.5,16.1,N/A,,Overcast,320,2012-10-30 18:05:00
2:31 PM,39.2,28.4,65,29.54,10.0,NNW,12.7,17.3,N/A,,Overcast,330,2012-10-30 18:31:00
2:54 PM,39.9,28.9,65,29.55,10.0,NW,12.7,23.0,N/A,,Overcast,320,2012-10-30 18:54:00
3:54 PM,42.1,28.9,60,29.55,10.0,NW,16.1,23.0,N/A,,Overcast,320,2012-10-30 19:54:00
4:54 PM,39.0,30.9,73,29.59,10.0,North,10.4,-,N/A,,Overcast,350,2012-10-30 20:54:00
5:24 PM,39.2,32.0,75,29.59,10.0,North,8.1,-,N/A,,Overcast,350,2012-10-30 21:24:00
5:35 PM,39.2,32.0,75,29.60,10.0,NNW,8.1,-,N/A,,Overcast,330,2012-10-30 21:35:00
5:54 PM,39.9,30.0,68,29.61,10.0,NW,8.1,-,N/A,,Overcast,310,2012-10-30 21:54:00
6:54 PM,37.9,32.0,79,29.64,10.0,NW,10.4,-,N/A,,Overcast,320,2012-10-30 22:54:00
7:54 PM,37.0,33.1,86,29.66,10.0,North,5.8,-,N/A,,Overcast,360,2012-10-30 23:54:00
8:54 PM,37.9,33.1,83,29.68,10.0,NNW,4.6,-,N/A,,Overcast,330,2012-10-31 00:54:00
9:54 PM,39.9,30.9,70,29.69,10.0,North,6.9,-,N/A,,Overcast,350,2012-10-31 01:54:00
10:54 PM,39.9,30.9,70,29.69,10.0,NNW,11.5,-,N/A,,Overcast,340,2012-10-31 02:54:00
11:05 PM,39.2,30.2,70,29.68,10.0,NNW,12.7,-,N/A,,Overcast,340,2012-10-31 03:05:00
11:54 PM,39.9,30.0,68,29.68,10.0,NNW,5.8,-,N/A,,Mostly Cloudy,340,2012-10-31 03:54:00